TimePDT,TemperatureF,Dew PointF,Humidity,Sea Level PressureIn,VisibilityMPH,Wind Direction,Wind SpeedMPH,Gust SpeedMPH,PrecipitationIn,Events,Conditions,WindDirDegrees,DateUTC
12:53 AM,60.1,32.0,35,29.84,10.0,East,4.6,-,N/A,,Clear,100,2013-10-13 07:53:00
1:53 AM,60.1,33.1,36,29.85,10.0,ENE,3.5,-,N/A,,Clear,60,2013-10-13 08:53:00
2:53 AM,64.0,32.0,30,29.82,10.0,Calm,Calm,-,N/A,,Clear,0,2013-10-13 09:53:00
3:53 AM,64.9,30.9,28,29.82,10.0,SSW,12.7,-,N/A,,Clear,200,2013-10-13 10:53:00
4:53 AM,62.1,30.9,31,29.82,10.0,South,10.4,-,N/A,,Clear,170,2013-10-13 11:53:00
5:53 AM,64.0,30.9,29,29.82,10.0,South,13.8,-,N/A,,Clear,190,2013-10-13 12:53:00
6:53 AM,60.1,32.0,35,29.82,10.0,SSE,9.2,-,N/A,,Clear,160,2013-10-13 13:53:00
7:53 AM,64.0,32.0,30,29.84,10.0,SSE,6.9,-,N/A,,Clear,160,2013-10-13 14:53:00
8:53 AM,66.0,32.0,28,29.86,10.0,SSE,8.1,-,N/A,,Clear,160,2013-10-13 15:53:00
9:53 AM,69.1,30.0,23,29.86,10.0,SSE,8.1,-,N/A,,Clear,150,2013-10-13 16:53:00
10:21 AM,71.6,28.4,20,29.84,10.0,SSW,11.5,20.7,N/A,,Clear,210,2013-10-13 17:21:00
10:53 AM,72.0,27.0,19,29.84,10.0,SW,17.3,23.0,N/A,,Clear,220,2013-10-13 17:53:00
11:53 AM,73.9,27.0,18,29.83,10.0,WSW,18.4,25.3,N/A,,Clear,240,2013-10-13 18:53:00
12:53 PM,75.0,26.1,16,29.83,10.0,West,12.7,21.9,N/A,,Clear,260,2013-10-13 19:53:00
1:53 PM,75.0,24.1,15,29.83,10.0,SW,19.6,27.6,N/A,,Partly Cloudy,220,2013-10-13 20:53:00
2:53 PM,73.9,27.0,18,29.83,10.0,SW,12.7,19.6,N/A,,Partly Cloudy,230,2013-10-13 21:53:00
3:53 PM,70.0,34.0,27,29.86,10.0,NNW,26.5,43.7,N/A,,Overcast,340,2013-10-13 22:53:00
4:53 PM,68.0,34.0,28,29.92,10.0,North,19.6,25.3,0.00,,Mostly Cloudy,350,2013-10-13 23:53:00
5:53 PM,68.0,32.0,26,29.93,10.0,North,9.2,82.9,N/A,,Mostly Cloudy,350,2013-10-14 00:53:00
5:56 PM,68.0,32.0,26,29.91,10.0,North,10.4,-,N/A,,Mostly Cloudy,350,2013-10-14 00:56:00
6:53 PM,66.0,32.0,28,29.97,10.0,North,13.8,-,N/A,,Clear,350,2013-10-14 01:53:00
7:53 PM,64.9,30.9,28,29.99,10.0,North,12.7,-,N/A,,Clear,350,2013-10-14 02:53:00
8:53 PM,64.0,32.0,30,30.01,10.0,NNW,8.1,-,N/A,,Clear,340,2013-10-14 03:53:00
9:53 PM,64.0,33.1,31,30.01,10.0,NNW,12.7,-,N/A,,Clear,330,2013-10-14 04:53:00
10:53 PM,60.1,34.0,38,30.05,10.0,North,6.9,-,N/A,,Clear,10,2013-10-14 05:53:00
11:53 PM,60.1,34.0,38,30.05,10.0,North,10.4,-,N/A,,Clear,350,2013-10-14 06:53:00